User: anonymous   Login
Location: Unspecified
(0.0000°N, 0.0000°E)
Time: 18:39:57
(UTC+00:00)
Language:

TET - Orbit

View from above orbital plane
View from above orbital plane
View from above satellite
View from above satellite

Ground track
Ground track

The orbit data is extracted from the following two-line orbital elements,

1 38710U 12039D   19107.94122460 +.00002442 +00000-0 +46592-4 0  9992
2 38710 097.6180 106.2043 0001034 050.0446 310.0895 15.49246666377816
Epoch (UTC): 17 April 2019 22:35:21
Eccentricity: 0.0001034
inclination: 97.6180°
perigee height: 418 km
apogee height: 419 km
right ascension of ascending node: 106.2043°
argument of perigee: 50.0446°
revolutions per day: 15.49246666
mean anomaly at epoch: 310.0895°
orbit number at epoch: 37781

The dashed part of the orbit path shows where the satellite is in the earth's shadow,  

DLR